SCP
0 0 0 0 0 0 0 0 0 0 0 0 0 0 0 0 0 0 0 0 0 0 0 0 0 0 0 0 0 0 0 0 0 0 0 0 0 0
0 0 0 0 0 0 0 0 0 0 0 0 0 0 0 0 0 0 0 0 0 0 0 0 0 0 0 0 0 0 0 0 0 0 0 0 0 0
0 0 0 0 0 0 0 0 0 0 0 0 0 0 0 0 0 0 0 0 0 0 0 0 0 0 0 0 0 0 0 0 0 0 0 0 0 0
0 0 0 0 0 0 0 0 0 0 0 0 0 0 0 0 0 0 0 0 0 0 0 0 0 0 0 0 0 0 0 0 0 0 0 0 0 0
0 0 0 0 0 0 0 0 0 0 0 0 0 0 0 0 0 0 0 0 0 0 0 0 0 0 0 0 0 0 0 0 0 0 0 0 0 0
0 0 0 0 0 0 0 0 0 0 0 0 0 0 0 0 0 0 0 0 0 0 0 0 0 0 0 0 0 0 0 0 0 0 0 0 0 0
0 0 0 0 0 0 0 0 0 0 0 0 0 0 0 0 0 0 0 0 0 0 0 0 0 0 0 0 0 0 0 0 0 0 0 0 0 0
0 0 0 0 0 0 0 0 0 0 0 0 0 0 0 0 0 0 0 0 0 0 0 0 0 0 0 0 0 0 0 0 0 0 0 0 0 0
0 0 0 0 0 0 0 0 0 0 0 0 0 0 0 0 0 0 0 0 0 0 0 0 0 0 0 0 0 0 0 0 0 0 0 0 0 0
0 0 0 0 0 0 0 0 0 0 0 0 0 0 0 0 0 0 0 0 0 0 0 0 0 0 0 0 0 0 0 0 0 0 0 0 0 0
0 0 0 0 0 0 0 0 0 0 0 0 0 0 0 0 0 0 0 0 0 0 0 0 0 0 0 0 0 0 0 0 0 0 0 0 0 0
0 0 0 0 0 0 0 0 0 0 0 0 0 0 0 0 0 0 0 0 0 0 0 0 0 0 0 0 0 0 0 0 0 0 0 0 0 0
0 0 0 0 0 0 0 0 0 0 0 0 0 0 0 0 0 0 0 0 0 0 0 0 0 0 0 0 0 0 0 0 0 0 0 0 0 0
0 0 0 0 0 0 0 0 0 0 0 0 0 0 0 0 0 0 0 0 0 0 0 0 0 0 0 0 0 0 0 0 0 0 0 0 0 0
0 0 0 0 0 0 0 0 0 0 0 0 0 0 0 0 0 0 0 0 0 0 0 0 0 0 0 0 0 0 0 0 0 0 0 0 0 0
0 0 0 0 0 0 0 0 0 0 0 0 0 0 0 0 0 0 0 0 0 0 0 0 0 0 0 0 0 0 0 0 0 0 0 0 0 0
0 0 0 0 0 0 0 0 0 0 0 0 0 0 0 0 0 0 0 0 0 0 0 0 0 0 0 0 0 0 0 0 0 0 0 0 0 0
0 0 0 0 0 0 0 0 0 0 0 0 0 0 0 0 0 0 0 0 0 0 0 0 0 0 0 0 0 0 0 0 0 0 0 0 0 0
0 0 0 0 0 0 0 0 0 0 0 0 0 0 0 0 0 0 0 0 0 0 0 0 0 0 0 0 0 0 0 0 0 0 0 0 0 0
0 0 0 0 0 0 0 0 0 0 0 0 0 0 0 0 0 0 0 0 0 0 0 0 0 0 0 0 0 0 0 0 0 0 0 0 0 0
0 0 0 0 0 0 0 0 0 0 0 0 0 0 0 0 0 0 0 0 0 0 0 0 0 0 0 0 0 0 0 0 0 0 0 0 0 0
0 0 0 0 0 0 0 0 0 0 0 0 0 0 0 0 0 0 0 0 0 0 0 0 0 0 0 0 0 0 0 0 0 0 0 0 0 0
0 0 0 0 0 0 0 0 0 0 0 0 0 0 0 0 0 0 0 0 0 0 0 0 0 0 0 0 0 0 0 0 0 0 0 0 0 0
Wind_Speed
4 5 4 3 3 3 3 3 3 3 4 3 2 2 2 2 2 3 3 2 3 4 4 4 4 3 3 3 3 3 4 4 4 5 6 6 7 7
3 4 4 4 4 3 3 3 3 4 3 2 2 2 3 3 3 4 3 3 3 4 4 3 3 3 4 4 4 4 4 4 5 5 6 7 7 8
4 4 4 4 4 4 4 3 3 3 4 2 2 2 4 4 3 3 3 3 3 4 5 4 4 4 4 5 5 5 5 5 5 6 6 7 7 8
5 5 5 4 5 5 4 4 4 4 4 4 3 3 4 4 4 4 3 3 3 4 5 5 5 5 5 5 5 6 6 6 6 6 6 7 7 8
6 6 5 5 5 4 5 5 4 3 3 3 3 2 2 3 4 4 4 4 3 3 5 6 6 6 6 6 6 6 6 6 6 6 6 7 7 8
6 6 6 6 7 6 5 5 4 4 4 4 3 3 3 3 3 3 3 3 3 3 4 4 5 6 6 7 6 6 6 7 7 7 7 7 7 7
6 6 6 7 8 6 5 6 6 5 4 4 3 3 3 3 4 3 3 3 3 3 3 3 3 3 3 5 5 5 5 6 7 7 7 7 7 7
6 6 6 6 7 7 8 7 7 7 6 5 4 5 5 5 3 3 3 3 3 2 3 3 3 3 3 3 4 5 5 5 6 6 6 7 8 8
6 6 5 5 6 6 6 6 7 8 9 7 7 7 6 5 5 5 5 5 4 2 3 4 3 4 3 3 5 5 6 6 6 6 7 7 7 8
6 6 6 6 5 6 5 6 6 6 7 7 7 7 6 5 6 6 5 4 3 3 3 4 3 4 3 3 4 5 6 6 6 6 7 8 8 9
5 6 6 6 6 6 6 5 5 5 5 7 7 6 7 7 6 4 4 4 4 3 3 3 3 3 4 4 3 5 6 7 7 7 7 8 8 8
4 5 6 6 7 7 6 6 6 6 4 4 4 4 5 6 7 6 5 5 3 3 3 3 2 2 3 3 2 3 3 5 6 7 8 8 8 6
4 4 4 6 8 8 8 6 7 5 5 4 4 3 3 4 4 4 4 4 4 4 3 3 2 3 3 3 3 3 3 4 4 5 6 7 8 7
4 4 4 6 7 8 7 6 5 4 3 3 3 3 3 3 3 3 3 3 3 3 3 4 3 4 4 4 4 3 3 4 4 4 4 6 7 7
4 5 6 7 6 5 5 5 4 3 3 4 4 3 3 3 2 2 2 1 2 2 3 4 4 4 4 5 4 4 4 4 4 4 4 4 4 4
4 4 6 6 5 4 4 3 3 3 3 3 3 2 2 2 3 3 3 2 2 2 2 3 4 4 4 5 4 4 4 3 3 4 4 4 4 4
3 3 3 3 3 3 3 3 3 3 3 3 3 3 3 3 3 3 3 3 3 3 3 2 2 3 4 4 4 4 4 4 4 4 4 5 5 4
3 3 3 3 3 3 3 3 3 3 3 3 3 3 3 3 3 2 3 3 4 3 3 2 2 2 3 3 4 5 4 4 4 4 4 5 6 4
2 2 3 3 3 3 3 2 2 2 2 3 3 3 3 3 3 3 3 3 3 3 3 3 3 3 4 4 3 4 4 4 4 4 4 5 6 5
1 2 3 3 2 3 3 2 2 2 2 2 3 3 3 3 3 3 3 3 3 3 3 3 3 3 4 4 3 3 5 4 4 4 4 4 5 7
2 2 2 2 2 2 2 2 2 2 2 2 2 3 3 3 3 3 3 4 4 3 4 4 3 2 2 2 3 4 3 4 5 4 4 4 5 4
2 2 2 2 2 2 2 2 2 2 2 2 2 3 3 3 3 4 3 3 3 3 4 3 2 2 3 4 4 5 4 3 5 7 8 7 4 4
2 2 2 3 2 2 2 2 3 2 2 2 2 3 3 3 3 3 3 3 3 3 3 3 2 2 3 3 4 4 5 5 4 4 4 6 9 11
Wind_Direction
219 216 213 215 226 229 216 206 209 224 228 217 214 226 246 249 270 263 262 272 278 285 290 292 300 296 295 280 273 286 297 301 303 306 305 305 300 296
220 221 218 216 219 226 221 221 228 235 237 219 237 243 243 253 257 258 267 270 250 259 268 276 283 285 283 284 269 263 271 278 284 291 295 298 300 301
223 226 224 222 222 223 220 220 223 227 237 243 250 248 241 247 249 255 258 254 239 246 250 256 261 268 273 277 276 263 260 269 278 280 285 292 296 299
222 227 228 222 230 228 220 221 223 228 230 231 239 243 244 241 241 244 252 255 253 255 250 253 256 261 265 267 272 271 262 265 270 274 279 284 289 293
226 226 230 226 230 237 229 225 225 229 231 223 230 248 255 241 236 245 248 253 259 258 255 251 253 255 255 256 260 271 268 261 259 267 274 279 283 287
232 231 229 231 230 236 235 229 225 225 226 223 225 237 246 243 236 238 247 254 261 264 261 258 256 254 254 257 259 264 268 261 257 262 269 274 277 281
235 234 232 236 240 237 238 231 221 220 222 224 225 230 235 229 233 241 250 261 264 266 263 258 256 255 252 259 266 269 274 274 266 261 262 266 271 275
234 236 235 233 238 242 247 244 235 223 221 227 232 230 235 233 235 233 235 250 260 253 267 268 263 259 259 261 266 268 274 276 272 271 270 272 273 274
237 235 233 232 236 238 241 239 241 239 235 232 232 236 234 226 223 228 231 242 255 252 259 262 258 261 262 261 268 269 273 274 272 271 276 279 282 279
242 240 235 233 232 238 237 233 237 237 235 234 234 235 237 227 225 233 239 251 267 245 249 260 263 268 270 260 261 272 271 268 272 279 278 278 278 277
246 246 242 236 232 238 231 229 239 246 248 247 249 241 232 230 226 218 219 227 247 246 243 255 267 280 276 270 266 266 270 268 268 274 281 281 281 276
247 247 244 244 241 240 234 225 232 238 234 239 242 235 226 214 215 218 215 220 238 245 223 235 255 271 272 262 268 266 267 274 277 277 281 284 286 281
247 250 250 247 250 252 250 240 237 243 235 234 233 224 219 213 214 220 224 221 228 240 215 227 245 251 258 273 272 271 272 277 273 270 272 279 280 276
246 251 254 254 256 255 252 247 240 238 230 224 225 224 219 216 215 220 232 247 256 251 226 228 243 243 254 266 267 266 270 270 272 275 276 275 269 270
253 258 264 259 259 253 245 241 227 224 221 222 224 227 228 218 207 212 226 236 271 268 241 246 247 246 252 259 265 268 277 273 267 273 275 273 271 270
257 259 262 256 251 251 239 225 226 230 231 231 229 225 213 210 216 214 219 219 238 254 254 254 252 247 252 256 259 262 263 267 273 277 279 274 267 262
252 252 247 246 240 238 234 231 232 228 233 235 228 219 215 217 224 221 222 224 234 238 245 257 269 269 265 262 257 257 265 270 272 276 276 273 266 260
248 243 246 249 248 245 238 235 239 237 238 239 232 224 218 217 223 227 230 231 232 234 240 244 251 263 262 260 246 258 267 272 277 275 268 268 270 264
245 242 247 251 253 257 254 248 253 253 250 240 231 230 227 221 219 222 225 234 240 243 243 239 237 243 260 269 241 228 259 274 278 276 271 267 270 274
263 260 258 253 247 251 256 255 257 253 247 242 236 234 229 221 219 222 223 229 237 244 249 245 241 242 253 270 274 268 250 262 271 278 282 285 282 280
276 277 276 269 263 262 263 256 251 252 250 247 242 241 235 225 224 226 229 228 235 238 243 250 259 268 272 269 265 265 262 253 263 271 283 285 287 281
282 281 284 284 277 271 265 256 254 254 254 252 249 245 242 237 231 230 229 230 235 241 250 258 251 244 246 250 262 272 277 285 270 266 264 259 267 271
287 285 284 282 277 275 266 257 255 258 255 253 249 246 245 247 246 241 236 234 235 239 243 246 250 256 260 257 264 274 278 282 283 283 275 265 265 272